Location: Unspecified
(35.6961°N, 0.0000°E)
Time: 22:43:09
(UTC+00:00)

S-56A Canister/Altair - Pass Details

Date: 04 June 2019
Orbit: 633 x 2499 km, 38.9° (Epoch: 14 June)

Event Time Altitude Azimuth Distance (km) Brightness Sun altitude
Rises 06:06:01 0° 265° (W) 4,341 10.8 14.3°
Reaches altitude 10° 06:13:03 10° 226° (SW) 3,943 10.7 15.7°
Maximum altitude 06:14:16 10° 220° (SW) 4,015 10.8 15.9°
Drops below altitude 10° 06:15:31 10° 213° (SSW) 4,127 10.9 16.2°
Sets 06:24:42 0° 178° (S) 5,702 11.8 18.0°
